Flag for Austria Weather past 2 weeks in Bad Radkersburg, Styria, Austria

Now
69 °F

Overcast.


Feels Like: 69 °F
Forecast: 52 / 63 °F
Wind: 1 mph from South

Location: Murska Sobota

Current Time: Aug 23, 2014 at 3:25:41 PM

Latest Report: Aug 23, 2014 at 2:00 PM


Visibility: 6 mi

Pressure: 29.93 "Hg

Humidity: 84%

Dew point: 64 °F

Location of Bad RadkersburgLocation

Historic Weather in Bad Radkersburg — Graph

°F

Bad Radkersburg temperature yesterday

Maximum temperature yesterday: 71 °F (at 5:00 PM)
Minimum temperature yesterday: 52 °F (at 5:00 AM)
Average temperature yesterday: 62 °F

Past Weeks' High & Low Weather Summary

 TemperatureHumidityPressure
High86 °F (Aug 11, 4:00 PM)100% (Aug 10, 3:00 AM)30.10 "Hg (Aug 10, 3:00 AM)
Low49 °F (Aug 18, 6:00 AM)45% (Aug 17, 5:00 PM)29.64 "Hg (Aug 13, 8:00 PM)
Average66 °F82%29.95 "Hg
* Reported Aug 8 2:00 PM — Aug 23 2:00 PM, Bad Radkersburg, Weather by CustomWeather, © 2014

Note: Actual official high and low records may vary slightly from our data, if they occured in-between our weather recording intervals... More about our weather records

Advertising

Bad Radkersburg weather history for previous 24 hours

 ConditionsComfort  
Time TempWeatherWind HumidityBarometerVisibility
2:00 PM
Aug 23
69 °FOvercast.1 mph84%29.93 "Hg6 mi
1:00 PM68 °FMild.1 mph82%29.96 "HgN/A
12:00 PM68 °FMild.1 mph81%29.98 "HgN/A
11:00 AM66 °FMild.1 mph86%29.98 "HgN/A
10:00 AM63 °FMild.1 mph92%29.99 "HgN/A
9:00 AM60 °FCool.1 mph98%29.99 "HgN/A
8:00 AM58 °FFog.1 mph99%30.00 "Hg1 mi
7:00 AM57 °FFog.1 mph100%29.98 "Hg0 mi
6:00 AM57 °FCool.1 mph99%29.98 "HgN/A
5:00 AM56 °FCool.No wind99%29.98 "HgN/A
4:00 AM56 °FCool.No wind99%29.99 "HgN/A
3:00 AM56 °FCool.1 mph99%30.00 "HgN/A
2:00 AM57 °FCool.No wind98%30.00 "HgN/A
1:00 AM58 °FCool.1 mph98%30.01 "HgN/A
12:00 AM58 °FCool.No wind98%30.01 "HgN/A
11:00 PM
Aug 22
58 °FCool.1 mph96%30.00 "HgN/A
10:00 PM60 °FCool.1 mph94%30.00 "HgN/A
9:00 PM63 °FMild.1 mph90%29.99 "HgN/A
8:00 PM67 °FPassing clouds.1 mph82%29.98 "Hg6 mi
7:00 PM69 °FMild.1 mph73%29.98 "HgN/A
6:00 PM70 °FMild.1 mph70%29.98 "HgN/A
5:00 PM71 °FMild.1 mph66%30.00 "HgN/A
4:00 PM71 °FMild.1 mph68%30.01 "HgN/A
3:00 PM69 °FOvercast.1 mph69%30.02 "Hg6 mi
Weather by CustomWeather, © 2014

See weather overviewHow to use our weather pages